Worthington, MN

11:13 AM CST on November 13, 2019 (GMT -0600)
Worthington Municipal

Weather History for KOTG - October, 2019

Change the Weather History Date:

Tuesday, October 22, 2019

  Actual Average Record
Temperature  
Mean Temperature 40 °F -  
Max Temperature 48 °F 53 °F 77 °F (1973)
Min Temperature 32 °F 35 °F 17 °F (1982)
Degree Days  
Heating Degree Days 24    
Moisture  
Dew Point 31 °F    
Average Humidity 73    
Maximum Humidity 93    
Minimum Humidity 48    
Precipitation  
Precipitation 0.01 in - - ()
Sea Level Pressure  
Sea Level Pressure 29.73 in    
Wind  
Wind Speed 26 mph (WNW)    
Max Wind Speed 34 mph    
Max Gust Speed 45 mph    
Visibility 10 miles    
Events Rain    
Averages and records for this station are not official NWS values.
T = Trace of Precipitation, MM = Missing Value Source: NWS Daily Summary

Daily Weather History Graph

Daily Weather History Graph

Search for Another Location

Airport or City:

Astronomy

Oct. 22, 2019 Rise Set
Actual Time 7:44 AM CDT 6:27 PM CDT
Civil Twilight 7:15 AM CDT 6:57 PM CDT
Nautical Twilight 6:42 AM CDT 7:30 PM CDT
Astronomical Twilight 6:09 AM CDT 8:03 PM CDT
Moon 12:40 AM CDT (10/22) 3:52 PM CDT (10/22)
Length of Visible Light 11h 41m
Length of Day
10h 42m
Last Quarter, 37% of the Moon is Illuminated
Oct 22
Last Quarter
Oct 27
New
Nov 4
First Quarter
Nov 12
Full
Nov 19
Last Quarter

Hourly Weather History & Observations

Time (CDT) Temp. Windchill Dew Point Humidity Pressure Visibility Wind Dir Wind Speed Gust Speed Precip Events Conditions
12:56 AM 41.0 °F 29.1 °F 37.9 °F 89% 29.54 in 10.0 mi WNW 34.5 mph 40.3 mph 0.00 in Rain Light Rain
1:56 AM 39.9 °F 28.6 °F 37.0 °F 89% 29.57 in 10.0 mi WNW 28.8 mph 34.5 mph 0.01 in Rain Light Rain
2:27 AM 39.2 °F 26.8 °F 37.4 °F 93% 29.54 in 10.0 mi WNW 33.4 mph 40.3 mph 0.00 in   Overcast
2:56 AM 39.0 °F 27.2 °F 37.0 °F 93% 29.60 in 10.0 mi WNW 29.9 mph 39.1 mph 0.00 in Rain Light Rain
3:56 AM 39.0 °F 27.6 °F 36.0 °F 89% 29.61 in 10.0 mi WNW 27.6 mph 36.8 mph 0.00 in   Overcast
4:56 AM 39.0 °F 28.3 °F 35.1 °F 86% 29.64 in 10.0 mi WNW 24.2 mph 33.4 mph N/A   Overcast
5:56 AM 37.9 °F 26.1 °F 34.0 °F 86% 29.67 in 10.0 mi WNW 27.6 mph 34.5 mph N/A   Overcast
6:56 AM 37.0 °F 26.2 °F 34.0 °F 89% 29.68 in 10.0 mi WNW 21.9 mph 32.2 mph N/A   Overcast
7:56 AM 35.1 °F 22.2 °F 30.9 °F 85% 29.70 in 10.0 mi WNW 27.6 mph 36.8 mph 0.00 in Rain Light Rain
8:32 AM 35.6 °F 23.2 °F 28.4 °F 75% 29.67 in 10.0 mi WNW 26.5 mph 33.4 mph 0.00 in   Mostly Cloudy
8:56 AM 35.1 °F 22.7 °F 28.9 °F 78% 29.73 in 10.0 mi WNW 25.3 mph 29.9 mph 0.00 in   Mostly Cloudy
9:12 AM 35.6 °F 24.5 °F 28.4 °F 75% 29.70 in 10.0 mi WNW 20.7 mph 28.8 mph N/A   Scattered Clouds
9:56 AM 37.9 °F 26.3 °F 28.9 °F 70% 29.75 in 10.0 mi WNW 26.5 mph 33.4 mph N/A   Clear
10:56 AM 41.0 °F 30.9 °F 28.9 °F 62% 29.76 in 10.0 mi WNW 24.2 mph 38.0 mph N/A   Clear
11:56 AM 44.1 °F 33.5 °F 28.0 °F 53% 29.77 in 10.0 mi NW 33.4 mph 41.4 mph N/A   Clear
12:56 PM 46.0 °F 36.9 °F 28.9 °F 51% 29.76 in 10.0 mi WNW 28.8 mph 41.4 mph N/A   Clear
1:56 PM 46.9 °F - 28.9 °F 50% 29.77 in 10.0 mi WNW 34.5 mph 44.9 mph N/A   Scattered Clouds
2:56 PM 46.9 °F - 28.0 °F 48% 29.78 in 10.0 mi NW 29.9 mph 41.4 mph N/A   Mostly Cloudy
3:56 PM 48.0 °F - 30.0 °F 50% 29.78 in 10.0 mi WNW 27.6 mph 39.1 mph N/A   Mostly Cloudy
4:56 PM 46.9 °F - 28.9 °F 50% 29.80 in 10.0 mi WNW 23.0 mph 33.4 mph N/A   Clear
5:56 PM 46.0 °F 39.0 °F 28.9 °F 51% 29.81 in 10.0 mi WNW 17.3 mph - N/A   Clear
6:56 PM 42.1 °F 35.2 °F 30.0 °F 62% 29.83 in 10.0 mi West 12.7 mph - N/A   Clear
7:56 PM 39.9 °F 33.4 °F 30.0 °F 68% 29.84 in 10.0 mi West 10.4 mph - N/A   Clear
8:56 PM 37.0 °F 29.8 °F 30.0 °F 76% 29.85 in 10.0 mi West 10.4 mph - N/A   Clear
9:56 PM 36.0 °F 30.3 °F 30.0 °F 79% 29.86 in 10.0 mi WSW 6.9 mph - N/A   Clear
10:56 PM 33.1 °F 26.9 °F 28.9 °F 85% 29.85 in 10.0 mi WSW 6.9 mph - N/A   Clear
11:56 PM 32.0 °F 26.4 °F 28.9 °F 88% 29.86 in 10.0 mi WSW 5.8 mph - N/A   Clear